QPF
0.00 0.00 0.00 0.00 0.00 0.01 0.00 0.00 0.00 0.00 0.00 0.00 0.00 0.00 0.00 0.00 0.00 0.00 0.00 0.00 0.00 0.00 0.00 0.01 0.01 0.00 0.00 0.01 0.01 0.05 0.02 0.02 0.01 0.01 0.00 0.00 0.01 0.01 0.00 0.00 0.00 0.00 0.00 0.00 0.00 0.00 0.00 0.00 0.00
0.00 0.03 0.04 0.01 0.02 0.00 0.00 0.00 0.00 0.00 0.00 0.00 0.00 0.00 0.00 0.00 0.00 0.00 0.00 0.00 0.00 0.00 0.00 0.00 0.00 0.01 0.01 0.01 0.00 0.00 0.01 0.02 0.02 0.00 0.00 0.01 0.00 0.01 0.01 0.00 0.00 0.01 0.00 0.00 0.00 0.00 0.00 0.00 0.00
0.08 0.15 0.06 0.03 0.02 0.00 0.00 0.00 0.00 0.00 0.00 0.00 0.00 0.00 0.00 0.00 0.00 0.00 0.00 0.00 0.00 0.00 0.00 0.00 0.00 0.00 0.00 0.00 0.01 0.01 0.00 0.00 0.01 0.01 0.02 0.02 0.02 0.01 0.02 0.07 0.03 0.01 0.00 0.00 0.00 0.00 0.00 0.00 0.01
0.16 0.04 0.02 0.04 0.01 0.00 0.00 0.00 0.00 0.00 0.00 0.00 0.00 0.00 0.00 0.00 0.00 0.00 0.00 0.00 0.00 0.00 0.00 0.00 0.00 0.00 0.00 0.00 0.00 0.00 0.00 0.00 0.00 0.02 0.00 0.01 0.01 0.02 0.04 0.02 0.00 0.00 0.00 0.00 0.00 0.00 0.00 0.00 0.00
0.10 0.01 0.08 0.05 0.00 0.00 0.00 0.00 0.00 0.00 0.00 0.00 0.00 0.00 0.00 0.00 0.00 0.00 0.00 0.00 0.00 0.00 0.00 0.00 0.00 0.00 0.00 0.00 0.00 0.00 0.00 0.00 0.00 0.00 0.00 0.00 0.00 0.02 0.04 0.02 0.00 0.00 0.00 0.00 0.00 0.00 0.00 0.00 0.00
0.03 0.07 0.05 0.03 0.00 0.00 0.01 0.00 0.01 0.00 0.00 0.00 0.00 0.00 0.00 0.00 0.00 0.00 0.00 0.00 0.00 0.00 0.00 0.00 0.00 0.00 0.00 0.00 0.00 0.00 0.00 0.00 0.00 0.00 0.00 0.00 0.00 0.00 0.00 0.00 0.02 0.03 0.01 0.00 0.00 0.00 0.00 0.00 0.00
0.07 0.13 0.02 0.03 0.01 0.02 0.04 0.07 0.01 0.00 0.00 0.00 0.00 0.00 0.00 0.00 0.00 0.00 0.00 0.00 0.00 0.00 0.00 0.00 0.00 0.00 0.00 0.00 0.00 0.00 0.00 0.00 0.00 0.00 0.00 0.00 0.00 0.00 0.01 0.05 0.18 0.17 0.08 0.02 0.00 0.00 0.00 0.00 0.00
0.04 0.11 0.06 0.01 0.01 0.03 0.05 0.06 0.01 0.00 0.00 0.00 0.00 0.00 0.00 0.00 0.00 0.00 0.00 0.00 0.00 0.00 0.00 0.00 0.00 0.00 0.00 0.00 0.00 0.00 0.00 0.00 0.00 0.00 0.00 0.00 0.00 0.00 0.00 0.03 0.15 0.23 0.13 0.01 0.00 0.00 0.00 0.00 0.00
0.03 0.07 0.04 0.02 0.03 0.01 0.01 0.02 0.04 0.02 0.03 0.00 0.00 0.00 0.00 0.00 0.00 0.00 0.00 0.00 0.00 0.00 0.00 0.00 0.00 0.00 0.00 0.00 0.00 0.00 0.00 0.00 0.00 0.00 0.00 0.00 0.00 0.00 0.00 0.01 0.11 0.13 0.08 0.01 0.00 0.00 0.00 0.00 0.00
0.01 0.00 0.01 0.02 0.03 0.04 0.01 0.01 0.04 0.02 0.03 0.00 0.00 0.00 0.00 0.00 0.00 0.00 0.00 0.00 0.00 0.00 0.00 0.00 0.00 0.00 0.00 0.00 0.00 0.00 0.00 0.02 0.01 0.00 0.00 0.00 0.00 0.00 0.01 0.03 0.02 0.01 0.00 0.00 0.00 0.00 0.00 0.00 0.00
0.00 0.00 0.00 0.00 0.00 0.05 0.03 0.02 0.01 0.06 0.03 0.04 0.00 0.00 0.00 0.00 0.00 0.00 0.00 0.00 0.00 0.00 0.00 0.00 0.00 0.00 0.00 0.00 0.00 0.00 0.00 0.00 0.00 0.01 0.01 0.00 0.00 0.00 0.00 0.00 0.00 0.00 0.00 0.00 0.00 0.00 0.00 0.00 0.00
0.00 0.00 0.00 0.00 0.00 0.02 0.13 0.17 0.11 0.06 0.06 0.05 0.00 0.00 0.00 0.00 0.00 0.00 0.00 0.00 0.00 0.00 0.00 0.00 0.00 0.00 0.00 0.00 0.00 0.00 0.00 0.00 0.00 0.00 0.00 0.00 0.00 0.00 0.00 0.00 0.00 0.00 0.00 0.00 0.00 0.00 0.00 0.00 0.00
0.00 0.00 0.00 0.00 0.01 0.02 0.09 0.39 0.27 0.63 0.16 0.01 0.00 0.00 0.00 0.00 0.00 0.00 0.00 0.00 0.00 0.00 0.00 0.00 0.00 0.00 0.00 0.00 0.00 0.00 0.00 0.00 0.00 0.00 0.00 0.00 0.00 0.00 0.00 0.00 0.00 0.00 0.00 0.00 0.00 0.00 0.00 0.00 0.00
0.00 0.00 0.00 0.00 0.01 0.04 0.09 0.11 0.42 0.45 0.04 0.01 0.01 0.00 0.00 0.00 0.00 0.00 0.00 0.00 0.00 0.00 0.00 0.00 0.00 0.00 0.00 0.00 0.00 0.00 0.00 0.00 0.00 0.00 0.00 0.00 0.00 0.00 0.00 0.00 0.00 0.00 0.00 0.00 0.00 0.00 0.00 0.00 0.00
0.00 0.00 0.00 0.00 0.00 0.00 0.02 0.01 0.13 0.44 0.01 0.00 0.00 0.01 0.00 0.00 0.00 0.00 0.00 0.00 0.00 0.00 0.00 0.00 0.00 0.00 0.00 0.00 0.00 0.00 0.00 0.00 0.00 0.00 0.03 0.05 0.00 0.00 0.00 0.00 0.00 0.00 0.00 0.00 0.00 0.00 0.00 0.00 0.00
0.00 0.00 0.00 0.00 0.00 0.00 0.00 0.00 0.00 0.02 0.01 0.00 0.00 0.00 0.00 0.00 0.00 0.00 0.00 0.00 0.00 0.00 0.00 0.00 0.00 0.00 0.00 0.00 0.00 0.00 0.00 0.00 0.00 0.00 0.03 0.03 0.00 0.00 0.00 0.00 0.00 0.00 0.00 0.00 0.00 0.00 0.00 0.00 0.00
0.00 0.00 0.00 0.00 0.00 0.00 0.00 0.00 0.00 0.00 0.00 0.00 0.00 0.00 0.00 0.00 0.00 0.00 0.00 0.00 0.00 0.00 0.00 0.00 0.00 0.00 0.00 0.00 0.00 0.00 0.00 0.00 0.00 0.00 0.01 0.01 0.00 0.00 0.00 0.00 0.00 0.00 0.00 0.00 0.00 0.00 0.00 0.00 0.00
0.00 0.00 0.00 0.00 0.00 0.00 0.00 0.00 0.00 0.00 0.00 0.00 0.00 0.00 0.00 0.00 0.00 0.00 0.00 0.00 0.00 0.00 0.00 0.00 0.00 0.00 0.00 0.00 0.00 0.00 0.00 0.00 0.00 0.00 0.00 0.00 0.00 0.00 0.00 0.00 0.00 0.00 0.00 0.00 0.00 0.00 0.00 0.00 0.00
0.00 0.00 0.00 0.00 0.00 0.00 0.00 0.00 0.00 0.00 0.00 0.00 0.00 0.00 0.00 0.00 0.00 0.00 0.00 0.00 0.00 0.00 0.00 0.00 0.00 0.00 0.00 0.00 0.00 0.00 0.00 0.00 0.00 0.00 0.00 0.00 0.00 0.00 0.00 0.00 0.00 0.00 0.00 0.00 0.00 0.00 0.00 0.00 0.00
0.00 0.00 0.00 0.00 0.00 0.00 0.00 0.00 0.00 0.00 0.00 0.00 0.00 0.00 0.00 0.00 0.00 0.00 0.00 0.00 0.00 0.00 0.00 0.00 0.00 0.00 0.00 0.00 0.00 0.00 0.00 0.00 0.00 0.00 0.00 0.00 0.00 0.00 0.00 0.00 0.00 0.00 0.00 0.00 0.00 0.00 0.00 0.00 0.00
0.00 0.00 0.00 0.00 0.00 0.00 0.00 0.00 0.00 0.00 0.00 0.00 0.00 0.00 0.00 0.00 0.00 0.00 0.00 0.00 0.00 0.00 0.00 0.00 0.00 0.00 0.00 0.00 0.00 0.00 0.00 0.00 0.00 0.00 0.00 0.00 0.00 0.00 0.00 0.00 0.00 0.00 0.00 0.00 0.00 0.00 0.00 0.00 0.00
0.00 0.00 0.00 0.00 0.00 0.00 0.00 0.00 0.00 0.00 0.00 0.00 0.00 0.00 0.00 0.00 0.00 0.00 0.00 0.00 0.00 0.00 0.00 0.00 0.00 0.00 0.00 0.00 0.00 0.00 0.00 0.00 0.00 0.00 0.00 0.00 0.00 0.00 0.00 0.00 0.00 0.00 0.00 0.00 0.00 0.00 0.00 0.00 0.00
0.00 0.00 0.00 0.00 0.00 0.00 0.00 0.00 0.00 0.00 0.00 0.00 0.00 0.00 0.00 0.00 0.00 0.00 0.00 0.00 0.00 0.00 0.00 0.00 0.00 0.00 0.00 0.00 0.00 0.00 0.00 0.00 0.00 0.00 0.00 0.00 0.00 0.00 0.00 0.00 0.00 0.00 0.00 0.00 0.00 0.00 0.00 0.00 0.00
0.00 0.00 0.00 0.00 0.00 0.00 0.00 0.00 0.00 0.00 0.00 0.00 0.00 0.00 0.00 0.00 0.00 0.00 0.00 0.00 0.00 0.00 0.00 0.00 0.00 0.00 0.00 0.00 0.00 0.00 0.00 0.00 0.00 0.00 0.00 0.00 0.00 0.00 0.00 0.00 0.00 0.00 0.00 0.00 0.00 0.00 0.00 0.00 0.00
0.00 0.00 0.00 0.00 0.00 0.00 0.00 0.00 0.00 0.00 0.00 0.00 0.00 0.00 0.00 0.00 0.00 0.00 0.00 0.00 0.00 0.00 0.00 0.00 0.00 0.00 0.00 0.00 0.00 0.00 0.00 0.00 0.00 0.00 0.00 0.00 0.00 0.00 0.00 0.00 0.00 0.00 0.00 0.00 0.00 0.00 0.00 0.00 0.00
0.00 0.00 0.00 0.00 0.00 0.00 0.00 0.00 0.00 0.00 0.00 0.00 0.00 0.00 0.00 0.00 0.00 0.00 0.00 0.00 0.00 0.00 0.00 0.00 0.00 0.00 0.00 0.00 0.00 0.00 0.00 0.00 0.00 0.00 0.00 0.00 0.00 0.00 0.00 0.00 0.00 0.00 0.00 0.00 0.00 0.00 0.00 0.00 0.00
0.00 0.00 0.00 0.00 0.00 0.00 0.00 0.00 0.00 0.00 0.00 0.00 0.00 0.00 0.00 0.00 0.00 0.00 0.00 0.00 0.00 0.00 0.00 0.00 0.00 0.00 0.00 0.00 0.00 0.00 0.00 0.00 0.00 0.00 0.00 0.00 0.00 0.00 0.00 0.00 0.00 0.00 0.00 0.00 0.00 0.00 0.00 0.00 0.00
0.00 0.00 0.00 0.00 0.00 0.00 0.00 0.00 0.00 0.00 0.00 0.00 0.00 0.00 0.00 0.00 0.00 0.00 0.00 0.01 0.01 0.02 0.01 0.00 0.00 0.00 0.00 0.00 0.00 0.00 0.00 0.00 0.00 0.00 0.00 0.00 0.00 0.00 0.00 0.00 0.00 0.00 0.00 0.00 0.00 0.00 0.00 0.00 0.00
0.00 0.00 0.00 0.00 0.00 0.00 0.00 0.00 0.00 0.00 0.00 0.00 0.00 0.00 0.00 0.00 0.00 0.00 0.00 0.02 0.04 0.06 0.05 0.03 0.00 0.00 0.00 0.00 0.00 0.00 0.00 0.00 0.00 0.00 0.00 0.00 0.00 0.00 0.00 0.00 0.00 0.00 0.00 0.00 0.00 0.00 0.00 0.00 0.00
0.00 0.00 0.00 0.00 0.00 0.00 0.00 0.00 0.00 0.00 0.00 0.00 0.00 0.00 0.00 0.00 0.01 0.00 0.00 0.00 0.01 0.04 0.07 0.06 0.03 0.00 0.00 0.00 0.00 0.00 0.00 0.00 0.00 0.00 0.00 0.00 0.00 0.00 0.00 0.00 0.00 0.00 0.00 0.00 0.00 0.00 0.00 0.00 0.00
MSLP
1009.31 1009.55 1009.83 1010.15 1010.39 1009.41 1008.09 1007.29 1006.64 1007.04 1007.55 1007.60 1008.03 1008.53 1009.95 1010.61 1011.10 1012.62 1012.48 1012.84 1013.17 1013.48 1013.57 1013.66 1013.70 1013.81 1014.03 1014.17 1014.23 1014.31 1014.44 1014.65 1014.73 1014.91 1015.04 1015.27 1015.35 1015.41 1015.51 1015.55 1015.57 1015.59 1015.72 1015.89 1015.89 1015.88 1016.03 1016.07 1016.23
1009.43 1009.71 1009.83 1009.78 1009.63 1008.42 1007.81 1007.01 1006.73 1006.94 1007.66 1007.89 1008.34 1009.01 1009.84 1011.08 1011.51 1012.32 1012.81 1013.08 1013.17 1013.45 1013.62 1013.71 1013.86 1013.94 1014.07 1014.26 1014.47 1014.59 1014.65 1014.82 1014.87 1014.98 1015.20 1015.39 1015.52 1015.59 1015.61 1015.73 1015.83 1015.86 1015.95 1016.08 1016.18 1016.20 1016.22 1016.30 1016.45
1009.62 1009.51 1009.84 1009.49 1008.71 1007.89 1007.67 1007.19 1006.87 1007.25 1007.41 1007.57 1008.64 1009.30 1010.41 1011.45 1012.06 1012.43 1012.71 1013.23 1013.36 1013.74 1013.82 1013.88 1014.03 1014.23 1014.28 1014.44 1014.55 1014.69 1014.81 1014.83 1014.92 1015.02 1015.30 1015.48 1015.67 1015.70 1015.81 1015.86 1015.98 1016.02 1016.10 1016.24 1016.40 1016.57 1016.58 1016.61 1016.62
1009.61 1009.60 1009.62 1009.00 1008.05 1006.96 1006.87 1007.15 1007.06 1007.32 1007.46 1007.93 1008.76 1009.98 1010.81 1011.31 1011.92 1012.28 1013.01 1013.43 1013.70 1013.94 1013.94 1014.05 1014.21 1014.42 1014.56 1014.63 1014.80 1014.94 1015.06 1015.15 1015.23 1015.22 1015.54 1015.73 1015.82 1015.92 1016.14 1016.17 1016.14 1016.14 1016.27 1016.31 1016.46 1016.68 1016.83 1016.82 1016.95
1009.81 1009.62 1009.52 1008.76 1007.78 1006.94 1006.78 1006.81 1006.97 1007.36 1007.95 1008.50 1008.90 1010.71 1011.43 1012.07 1012.11 1012.66 1013.25 1013.63 1013.84 1014.21 1014.14 1014.30 1014.42 1014.57 1014.78 1014.80 1014.92 1015.19 1015.29 1015.37 1015.43 1015.43 1015.60 1015.81 1015.99 1016.11 1016.16 1016.46 1016.54 1016.50 1016.60 1016.60 1016.72 1016.86 1017.02 1017.10 1017.30
1009.94 1009.85 1009.46 1008.87 1007.73 1007.25 1007.25 1007.03 1007.14 1007.67 1008.32 1008.83 1009.68 1010.65 1012.15 1012.45 1012.60 1013.21 1013.50 1013.82 1013.91 1014.27 1014.42 1014.47 1014.61 1014.79 1014.89 1015.03 1015.17 1015.35 1015.47 1015.61 1015.76 1015.96 1016.08 1016.13 1016.18 1016.22 1016.36 1016.59 1016.67 1016.72 1016.81 1016.87 1016.97 1017.08 1017.19 1017.46 1017.54
1009.75 1009.77 1010.12 1009.14 1008.30 1007.68 1007.81 1007.66 1007.25 1007.97 1008.46 1009.05 1009.55 1011.12 1012.66 1012.91 1012.97 1013.43 1013.89 1014.06 1014.29 1014.32 1014.50 1014.78 1014.85 1014.94 1014.97 1015.21 1015.36 1015.55 1015.70 1015.87 1015.92 1016.01 1016.13 1016.27 1016.33 1016.39 1016.40 1016.54 1016.68 1016.77 1016.93 1017.08 1017.19 1017.20 1017.41 1017.66 1017.75
1009.77 1010.29 1009.89 1009.32 1008.65 1008.19 1008.14 1008.13 1008.04 1008.01 1008.81 1009.17 1009.57 1011.14 1012.29 1012.67 1013.07 1013.77 1014.30 1014.46 1014.70 1014.74 1014.77 1015.02 1015.18 1015.21 1015.36 1015.40 1015.52 1015.68 1015.92 1016.07 1016.25 1016.31 1016.39 1016.41 1016.31 1016.32 1016.50 1016.65 1016.70 1016.83 1017.03 1017.20 1017.32 1017.39 1017.61 1017.74 1017.88
1009.88 1010.03 1009.90 1009.32 1008.78 1008.72 1008.49 1008.59 1008.71 1008.45 1008.73 1009.31 1009.47 1010.36 1011.67 1012.59 1013.33 1014.04 1014.71 1015.02 1015.15 1015.23 1015.23 1015.21 1015.32 1015.41 1015.57 1015.75 1015.82 1015.88 1016.09 1016.23 1016.30 1016.28 1016.32 1016.43 1016.53 1016.53 1016.63 1016.83 1016.83 1016.97 1017.11 1017.28 1017.44 1017.59 1017.68 1017.90 1018.11
1009.43 1009.55 1008.54 1008.65 1008.86 1009.13 1009.05 1009.03 1009.40 1009.44 1009.55 1009.96 1010.23 1011.33 1012.06 1013.06 1013.64 1014.13 1014.75 1015.13 1015.31 1015.46 1015.39 1015.49 1015.49 1015.61 1015.76 1015.73 1016.01 1016.16 1016.23 1016.41 1016.48 1016.51 1016.51 1016.51 1016.53 1016.63 1016.86 1016.85 1016.89 1016.94 1017.18 1017.44 1017.62 1017.77 1017.95 1018.19 1018.55
1008.62 1008.49 1007.73 1008.59 1008.95 1009.02 1009.60 1009.74 1009.25 1010.13 1010.63 1010.20 1010.45 1011.45 1012.38 1013.14 1013.73 1014.21 1014.71 1014.74 1014.84 1015.25 1015.34 1015.45 1015.67 1015.65 1015.85 1015.86 1016.26 1016.26 1016.28 1016.46 1016.65 1016.77 1016.64 1016.60 1016.67 1016.78 1017.05 1017.32 1017.54 1017.57 1017.60 1017.86 1017.97 1018.05 1018.26 1018.55 1018.80
1007.72 1007.35 1007.95 1008.63 1009.06 1009.72 1010.14 1011.28 1011.10 1011.29 1011.30 1010.88 1011.01 1011.43 1012.25 1013.03 1013.63 1014.00 1014.46 1014.98 1015.08 1015.13 1015.25 1015.35 1015.49 1015.71 1015.88 1015.90 1016.20 1016.38 1016.28 1016.44 1016.56 1016.75 1016.80 1016.71 1016.95 1017.09 1017.33 1017.55 1017.81 1017.73 1017.98 1018.23 1018.33 1018.40 1018.45 1018.62 1018.80
1007.37 1007.37 1007.87 1008.44 1008.99 1009.99 1010.67 1011.52 1011.82 1011.64 1011.02 1010.98 1011.42 1011.84 1012.56 1013.14 1013.58 1013.72 1014.02 1014.51 1014.95 1015.11 1015.19 1015.24 1015.54 1015.79 1015.77 1015.97 1016.10 1016.33 1016.31 1016.55 1016.71 1016.77 1016.84 1016.77 1017.15 1017.35 1017.38 1017.70 1017.98 1017.89 1018.05 1018.32 1018.52 1018.61 1018.67 1018.79 1018.92
1007.21 1007.65 1008.32 1008.81 1009.22 1009.67 1009.95 1011.25 1011.52 1011.08 1011.63 1011.32 1011.70 1011.99 1012.37 1012.78 1013.25 1013.63 1014.05 1014.25 1014.61 1014.91 1014.98 1015.11 1015.38 1015.38 1015.66 1016.04 1015.98 1016.15 1016.24 1016.52 1016.82 1016.86 1016.87 1016.81 1016.98 1017.24 1017.55 1017.93 1018.08 1018.18 1018.22 1018.42 1018.64 1018.72 1018.72 1018.84 1018.93
1007.08 1008.12 1008.85 1009.28 1009.73 1010.17 1010.56 1011.77 1012.04 1011.56 1011.40 1011.33 1011.66 1011.81 1012.15 1012.29 1012.81 1013.06 1013.44 1013.93 1014.07 1014.59 1014.76 1015.06 1015.07 1015.29 1015.63 1015.78 1015.88 1016.07 1016.25 1016.45 1016.77 1016.82 1016.97 1016.94 1017.04 1017.06 1017.34 1017.90 1018.17 1018.11 1018.31 1018.45 1018.67 1018.87 1018.99 1019.23 1019.16
1007.23 1008.35 1009.29 1009.16 1009.68 1010.02 1010.73 1011.33 1011.37 1011.61 1011.22 1010.88 1011.34 1011.47 1011.84 1012.09 1012.27 1012.46 1013.03 1013.60 1013.94 1014.30 1014.85 1014.93 1015.09 1015.28 1015.57 1015.59 1015.71 1015.94 1016.25 1016.44 1016.60 1016.67 1016.61 1016.76 1016.90 1016.97 1017.18 1017.69 1017.93 1017.85 1018.17 1018.52 1018.73 1018.97 1019.19 1019.26 1019.26
1007.83 1008.58 1009.22 1009.26 1009.55 1009.97 1010.64 1011.11 1011.00 1011.37 1011.24 1010.79 1010.73 1011.15 1011.51 1011.91 1012.24 1012.30 1012.60 1013.32 1013.54 1013.93 1014.52 1014.91 1015.02 1015.33 1015.42 1015.46 1015.65 1015.87 1015.99 1016.25 1016.37 1016.50 1016.51 1016.35 1016.43 1016.68 1017.00 1017.21 1017.47 1017.74 1017.90 1018.26 1018.61 1018.87 1019.17 1019.27 1019.27
1008.01 1008.56 1008.85 1008.91 1009.64 1010.10 1010.65 1010.69 1010.88 1011.24 1011.13 1010.46 1010.51 1010.76 1011.22 1011.53 1011.78 1012.06 1012.40 1012.85 1013.18 1013.50 1014.18 1014.56 1014.83 1015.21 1015.41 1015.62 1015.72 1015.68 1015.95 1016.15 1016.29 1016.57 1016.61 1016.54 1016.60 1016.69 1017.01 1017.29 1017.62 1017.84 1018.15 1018.41 1018.55 1018.82 1018.98 1019.09 1019.24
1007.44 1007.98 1008.21 1008.38 1009.25 1009.69 1010.26 1010.40 1010.33 1010.65 1011.03 1010.65 1010.43 1010.16 1010.56 1011.00 1011.20 1011.72 1012.18 1012.58 1013.06 1013.50 1014.18 1014.58 1014.84 1015.14 1015.44 1015.69 1016.05 1016.16 1016.16 1016.27 1016.49 1016.49 1016.30 1016.42 1016.56 1016.69 1017.05 1017.53 1017.98 1018.18 1018.40 1018.42 1018.44 1018.65 1018.99 1019.19 1019.17
1007.29 1007.60 1007.89 1008.35 1009.13 1009.57 1010.28 1010.35 1010.16 1010.09 1010.19 1010.07 1010.00 1009.78 1009.93 1010.43 1010.82 1011.46 1012.06 1012.55 1012.98 1013.38 1013.90 1014.53 1014.69 1015.07 1015.41 1015.39 1015.65 1015.81 1015.96 1016.22 1016.33 1016.28 1016.37 1016.40 1016.25 1016.81 1017.19 1017.69 1018.23 1018.35 1018.77 1018.57 1018.64 1018.72 1019.15 1019.26 1019.33
1007.05 1007.29 1007.60 1008.40 1009.15 1009.54 1009.91 1009.89 1009.77 1009.46 1009.33 1009.41 1009.58 1009.34 1009.44 1009.64 1010.41 1010.90 1011.76 1012.20 1012.81 1013.28 1013.60 1014.08 1014.59 1014.86 1015.23 1015.46 1015.55 1015.82 1016.05 1016.31 1016.60 1016.66 1016.61 1016.46 1016.49 1016.62 1016.93 1017.28 1017.75 1018.09 1018.47 1018.62 1018.71 1018.77 1019.01 1019.44 1019.56
1006.65 1006.65 1007.11 1008.01 1009.06 1009.70 1009.55 1009.78 1008.99 1008.47 1008.31 1008.46 1008.54 1008.58 1008.74 1009.00 1009.53 1010.26 1011.06 1011.86 1012.34 1012.81 1013.21 1013.58 1014.19 1014.77 1015.07 1015.44 1015.58 1015.66 1016.02 1016.43 1016.51 1016.58 1016.62 1016.53 1016.52 1016.59 1016.86 1017.07 1017.37 1017.84 1018.26 1018.50 1018.65 1018.84 1018.99 1019.28 1019.69
1005.74 1006.32 1007.02 1007.89 1008.93 1009.51 1009.79 1009.71 1008.02 1007.59 1007.62 1007.19 1007.31 1007.48 1007.97 1008.21 1008.72 1009.43 1010.06 1010.71 1011.40 1012.39 1012.91 1013.24 1013.80 1014.53 1014.91 1015.24 1015.51 1015.73 1016.07 1016.22 1016.35 1016.68 1016.78 1016.79 1016.70 1016.58 1016.80 1017.04 1017.33 1017.79 1018.23 1018.54 1018.67 1018.84 1019.00 1019.36 1019.79
1005.76 1006.43 1007.17 1008.46 1009.57 1009.82 1009.14 1009.32 1007.10 1006.65 1005.21 1005.10 1005.58 1006.08 1006.82 1007.42 1007.78 1008.55 1009.22 1010.12 1011.02 1011.87 1012.58 1012.97 1013.54 1014.02 1014.57 1015.08 1015.45 1015.77 1016.06 1016.40 1016.68 1017.01 1017.21 1017.17 1017.14 1017.02 1016.95 1017.18 1017.37 1017.69 1018.11 1018.54 1018.75 1018.97 1019.19 1019.49 1019.70
1006.21 1007.53 1008.51 1009.71 1010.12 1009.65 1008.77 1008.79 1005.92 1004.27 1004.32 1003.99 1004.09 1005.00 1005.69 1006.42 1007.03 1007.82 1008.90 1009.68 1010.56 1011.38 1012.11 1012.64 1013.02 1013.70 1014.16 1014.62 1015.16 1015.54 1015.79 1016.09 1016.45 1016.66 1016.91 1017.05 1017.20 1017.24 1017.24 1017.35 1017.76 1017.93 1018.06 1018.33 1018.63 1019.02 1019.21 1019.44 1019.65
1006.48 1007.53 1008.74 1009.68 1010.00 1009.50 1008.79 1007.33 1004.66 1003.02 1002.02 1002.67 1002.78 1003.53 1005.27 1005.69 1006.15 1006.73 1007.50 1008.58 1009.69 1010.46 1011.40 1012.05 1012.63 1013.13 1013.59 1014.15 1014.82 1015.21 1015.48 1015.68 1016.02 1016.40 1016.46 1016.65 1016.70 1016.88 1016.88 1017.24 1017.55 1017.66 1017.89 1018.21 1018.57 1019.01 1019.28 1019.44 1019.61
1006.46 1007.29 1007.67 1009.19 1009.90 1009.82 1008.40 1006.18 1004.10 1002.97 1002.17 1002.03 1002.49 1003.54 1004.21 1005.15 1005.45 1005.78 1006.73 1007.81 1008.90 1009.85 1010.72 1011.36 1012.06 1012.73 1013.16 1013.58 1014.13 1014.72 1015.28 1015.67 1015.78 1015.91 1016.29 1016.38 1016.47 1016.71 1016.92 1017.09 1017.57 1017.61 1017.77 1018.01 1018.28 1018.83 1019.12 1019.35 1019.53
1005.51 1006.59 1008.01 1009.19 1009.86 1009.91 1008.24 1006.52 1004.59 1003.27 1002.76 1002.32 1002.56 1003.23 1003.61 1004.52 1005.18 1005.62 1006.47 1007.45 1008.60 1009.49 1010.24 1011.07 1011.60 1012.14 1012.64 1013.37 1013.81 1014.26 1014.72 1015.29 1015.65 1015.71 1015.87 1016.18 1016.32 1016.60 1016.73 1016.91 1017.16 1017.50 1017.64 1017.82 1018.28 1018.58 1018.78 1019.08 1019.23
1006.12 1006.54 1007.69 1008.64 1009.09 1009.07 1008.48 1006.53 1003.77 1003.07 1002.63 1002.76 1003.53 1003.78 1003.93 1004.25 1004.89 1005.55 1005.97 1007.33 1008.54 1009.85 1010.61 1011.30 1011.62 1011.98 1012.25 1012.93 1013.54 1013.98 1014.31 1014.83 1015.22 1015.39 1015.34 1015.66 1016.02 1016.34 1016.64 1016.76 1016.90 1017.16 1017.53 1017.82 1018.17 1018.42 1018.59 1018.85 1018.94
1005.47 1006.19 1006.92 1008.33 1009.22 1009.02 1007.93 1005.87 1003.60 1002.99 1003.48 1002.92 1003.92 1004.54 1004.59 1004.70 1005.03 1005.69 1006.32 1007.22 1008.58 1009.71 1010.02 1010.59 1011.50 1011.95 1012.03 1012.36 1013.19 1013.70 1014.17 1014.50 1014.91 1015.04 1015.15 1015.25 1015.57 1015.92 1016.26 1016.44 1016.61 1016.82 1017.11 1017.41 1017.77 1018.06 1018.22 1018.42 1018.52
Thickness
5794 5793 5792 5785 5766 5767 5772 5785 5803 5792 5787 5800 5803 5794 5776 5775 5768 5741 5770 5768 5765 5760 5755 5753 5752 5749 5747 5745 5745 5744 5743 5741 5739 5738 5738 5736 5735 5736 5737 5739 5740 5742 5743 5743 5746 5747 5748 5748 5748
5797 5794 5790 5779 5765 5767 5769 5795 5791 5796 5799 5805 5801 5793 5780 5764 5774 5767 5764 5768 5764 5760 5757 5755 5752 5751 5749 5747 5744 5743 5742 5741 5741 5740 5738 5736 5736 5736 5737 5739 5741 5743 5744 5745 5745 5747 5748 5749 5748
5797 5797 5780 5773 5774 5769 5765 5791 5796 5801 5808 5808 5793 5794 5779 5767 5773 5771 5773 5768 5765 5759 5757 5755 5753 5750 5749 5748 5747 5746 5745 5745 5744 5743 5740 5739 5737 5738 5738 5739 5741 5744 5746 5747 5746 5746 5746 5748 5749
5794 5793 5786 5773 5776 5799 5793 5795 5802 5800 5808 5808 5798 5776 5784 5788 5779 5779 5775 5769 5765 5760 5758 5755 5753 5751 5750 5749 5748 5747 5746 5745 5744 5743 5740 5738 5738 5738 5737 5738 5741 5745 5747 5749 5749 5747 5746 5748 5749
5794 5789 5771 5773 5784 5800 5806 5810 5808 5797 5798 5799 5800 5772 5771 5781 5785 5780 5774 5769 5765 5760 5759 5756 5754 5753 5752 5753 5752 5750 5748 5747 5744 5742 5740 5739 5739 5739 5740 5739 5740 5744 5747 5749 5751 5750 5749 5749 5749
5780 5782 5768 5767 5786 5800 5804 5813 5809 5800 5798 5797 5789 5779 5769 5783 5782 5777 5775 5770 5766 5761 5759 5757 5756 5754 5755 5755 5753 5752 5750 5747 5744 5741 5740 5740 5740 5741 5742 5742 5743 5744 5748 5750 5751 5751 5750 5748 5750
5779 5772 5759 5772 5784 5786 5791 5805 5806 5799 5796 5792 5800 5770 5769 5776 5781 5778 5774 5771 5767 5762 5761 5757 5758 5758 5758 5757 5756 5754 5752 5748 5747 5744 5743 5743 5743 5743 5744 5745 5747 5748 5749 5750 5751 5753 5754 5753 5753
5783 5774 5769 5775 5779 5781 5800 5800 5809 5804 5793 5809 5806 5771 5766 5780 5783 5777 5772 5770 5767 5764 5761 5758 5758 5760 5759 5760 5760 5758 5754 5751 5748 5746 5746 5746 5746 5745 5745 5747 5749 5750 5754 5753 5755 5757 5758 5757 5756
5786 5764 5759 5771 5781 5786 5802 5796 5803 5813 5803 5805 5807 5797 5791 5788 5783 5775 5767 5766 5765 5764 5764 5761 5761 5763 5763 5762 5761 5760 5758 5755 5753 5751 5751 5751 5751 5751 5750 5750 5752 5755 5756 5756 5757 5759 5761 5760 5758
5781 5769 5782 5792 5790 5787 5796 5798 5793 5791 5793 5794 5794 5794 5794 5785 5779 5772 5766 5763 5765 5765 5766 5766 5766 5767 5767 5766 5765 5763 5763 5761 5759 5759 5758 5758 5760 5760 5757 5757 5758 5761 5760 5760 5761 5763 5764 5763 5761
5790 5776 5800 5795 5796 5797 5791 5788 5803 5787 5777 5792 5788 5787 5787 5781 5779 5773 5770 5771 5774 5773 5771 5772 5771 5771 5771 5770 5768 5766 5767 5766 5764 5763 5763 5765 5765 5767 5767 5765 5763 5765 5764 5763 5764 5766 5766 5765 5764
5784 5805 5798 5793 5796 5789 5781 5775 5778 5778 5779 5795 5794 5794 5789 5781 5779 5776 5773 5772 5774 5777 5776 5776 5776 5775 5774 5775 5773 5771 5770 5770 5771 5769 5768 5770 5771 5772 5772 5770 5768 5769 5768 5766 5767 5769 5770 5769 5768
5796 5800 5799 5798 5796 5786 5783 5766 5767 5772 5787 5798 5792 5790 5784 5781 5778 5783 5783 5781 5778 5777 5780 5781 5780 5779 5779 5778 5778 5777 5775 5773 5773 5773 5772 5774 5775 5775 5777 5775 5772 5774 5774 5771 5770 5770 5771 5772 5771
5799 5796 5792 5791 5791 5789 5779 5769 5775 5761 5780 5788 5787 5785 5786 5786 5782 5783 5782 5782 5781 5782 5784 5786 5784 5785 5783 5782 5782 5782 5780 5779 5779 5778 5776 5777 5779 5780 5779 5777 5776 5776 5777 5776 5774 5773 5774 5774 5773
5802 5784 5783 5783 5782 5779 5780 5760 5761 5774 5782 5785 5783 5785 5787 5790 5789 5786 5786 5785 5787 5786 5788 5788 5789 5788 5787 5788 5787 5787 5785 5784 5784 5783 5780 5781 5782 5785 5784 5779 5778 5781 5780 5778 5776 5775 5774 5774 5775
5786 5777 5755 5780 5778 5777 5774 5753 5774 5781 5781 5787 5788 5788 5786 5787 5792 5794 5792 5789 5790 5790 5787 5791 5793 5791 5791 5793 5792 5791 5789 5788 5789 5788 5789 5788 5788 5789 5788 5785 5783 5785 5783 5779 5778 5778 5777 5778 5778
5768 5750 5755 5764 5780 5774 5771 5756 5777 5781 5780 5782 5791 5792 5785 5784 5789 5795 5797 5793 5794 5793 5791 5791 5795 5794 5795 5795 5795 5793 5793 5793 5792 5792 5792 5793 5795 5794 5792 5790 5789 5788 5787 5785 5783 5781 5780 5779 5780
5755 5751 5760 5760 5768 5768 5763 5764 5770 5776 5778 5785 5787 5795 5786 5783 5788 5795 5797 5799 5799 5798 5794 5795 5796 5796 5798 5798 5798 5800 5797 5796 5797 5794 5792 5794 5794 5795 5793 5791 5788 5787 5787 5787 5785 5782 5784 5784 5782
5773 5767 5767 5778 5775 5768 5763 5761 5769 5774 5773 5778 5783 5796 5794 5786 5794 5797 5798 5800 5799 5798 5793 5793 5794 5795 5796 5796 5795 5796 5797 5797 5798 5798 5798 5798 5796 5796 5794 5790 5786 5786 5786 5788 5789 5788 5785 5784 5786
5768 5766 5768 5774 5772 5770 5759 5761 5769 5774 5775 5779 5784 5793 5798 5793 5794 5794 5795 5795 5796 5795 5795 5793 5795 5796 5796 5799 5799 5800 5801 5801 5801 5801 5799 5799 5801 5797 5795 5792 5787 5785 5783 5787 5789 5788 5783 5786 5787
5761 5762 5768 5765 5764 5768 5763 5760 5767 5779 5784 5787 5790 5797 5801 5801 5795 5795 5792 5795 5794 5793 5795 5795 5795 5796 5798 5798 5802 5801 5803 5802 5798 5797 5798 5799 5800 5800 5798 5796 5793 5791 5789 5788 5789 5789 5789 5784 5787
5746 5779 5781 5766 5752 5735 5768 5734 5767 5777 5782 5787 5793 5796 5800 5804 5805 5800 5795 5794 5794 5794 5798 5798 5797 5796 5798 5798 5800 5801 5797 5794 5798 5798 5800 5801 5801 5802 5800 5799 5798 5795 5793 5794 5794 5793 5792 5790 5785
5769 5782 5775 5767 5751 5749 5751 5739 5762 5783 5779 5787 5796 5802 5803 5808 5808 5803 5804 5803 5800 5796 5796 5799 5799 5797 5798 5798 5798 5799 5797 5798 5798 5798 5799 5800 5802 5803 5802 5802 5801 5798 5796 5796 5796 5796 5794 5792 5789
5784 5770 5766 5752 5737 5724 5749 5745 5761 5770 5802 5815 5815 5815 5814 5812 5814 5810 5810 5807 5801 5797 5798 5798 5797 5797 5798 5798 5797 5795 5796 5794 5793 5794 5792 5795 5797 5801 5801 5802 5802 5800 5797 5795 5795 5795 5795 5793 5792
5758 5740 5710 5706 5708 5723 5748 5741 5785 5810 5811 5819 5823 5818 5824 5822 5820 5816 5809 5805 5801 5798 5798 5800 5801 5797 5798 5798 5797 5796 5797 5797 5795 5796 5796 5796 5797 5797 5800 5800 5800 5799 5798 5797 5797 5796 5795 5792 5790
5738 5732 5697 5692 5704 5726 5746 5741 5783 5820 5836 5834 5837 5835 5824 5823 5829 5826 5819 5815 5806 5804 5801 5803 5802 5802 5801 5800 5796 5799 5800 5801 5799 5798 5800 5800 5801 5800 5802 5800 5799 5800 5800 5799 5798 5796 5794 5794 5792
5734 5718 5743 5719 5726 5715 5730 5768 5801 5819 5823 5834 5834 5831 5831 5827 5833 5836 5826 5821 5815 5810 5805 5805 5804 5803 5804 5802 5802 5799 5797 5798 5800 5802 5801 5801 5802 5802 5801 5800 5799 5799 5799 5799 5798 5796 5795 5794 5793
5743 5745 5714 5704 5698 5700 5723 5746 5763 5800 5813 5826 5831 5832 5836 5834 5833 5835 5829 5824 5822 5813 5810 5808 5807 5804 5804 5801 5802 5802 5799 5798 5799 5803 5803 5802 5802 5802 5803 5803 5802 5801 5799 5798 5797 5797 5798 5796 5795
5720 5718 5720 5715 5708 5704 5700 5729 5788 5804 5816 5821 5819 5824 5830 5833 5833 5832 5833 5823 5818 5810 5806 5803 5805 5804 5805 5801 5799 5799 5800 5799 5799 5801 5806 5805 5805 5803 5801 5803 5804 5802 5800 5798 5797 5796 5796 5795 5794
5727 5722 5721 5696 5702 5703 5712 5734 5802 5814 5806 5820 5814 5817 5825 5830 5830 5827 5829 5826 5814 5807 5809 5807 5803 5802 5805 5805 5800 5798 5797 5798 5798 5800 5802 5806 5805 5805 5803 5803 5803 5802 5802 5801 5798 5796 5796 5794 5794